GEFSGL_con_cape1000_186.txt.gz
Probability
90 90 90 90 90 90 87 87 87 90 87 84 84 71 68 68 65 68 58 58 58 55 52 48 52 48 45 39 42 29 35 39 29 29 29 35 39 42 32 29 26 29 16
84 87 87 84 87 87 87 87 87 87 87 84 81 77 71 68 68 68 58 55 55 52 45 45 35 39 42 39 32 32 26 32 32 35 29 26 29 35 35 35 16 3 10
87 77 87 84 84 87 87 87 87 87 87 81 77 74 71 68 65 52 55 48 48 45 42 39 39 32 39 35 35 32 29 29 35 35 26 29 26 23 19 19 13 19 6
77 77 84 84 81 84 87 87 87 90 81 81 77 74 71 65 55 48 52 48 45 39 32 35 32 35 35 32 29 29 29 26 32 39 32 29 29 26 23 19 19 19 16
84 81 87 90 90 87 87 84 87 87 77 84 77 71 68 61 52 52 52 45 42 35 32 35 29 19 16 16 13 23 23 26 29 26 26 23 23 19 16 19 13 19 16
84 84 84 87 87 87 84 87 84 77 81 81 77 61 52 32 13 16 26 39 35 35 42 35 23 16 13 3 0 0 6 10 19 23 16 16 19 19 16 16 13 13 10
81 84 81 87 87 87 90 81 81 77 77 74 71 65 58 29 13 6 3 35 32 39 35 39 19 13 10 13 10 3 3 0 0 10 10 13 10 16 13 10 16 10 13
77 74 71 77 84 84 81 77 81 81 71 68 65 61 58 32 6 3 3 16 26 32 29 29 26 26 16 13 16 13 13 10 6 6 10 10 6 3 10 6 10 6 10
65 68 74 68 71 77 77 77 77 74 71 52 55 55 52 32 3 3 0 16 26 26 23 19 16 19 6 0 6 16 16 6 3 0 0 0 0 0 0 0 3 3 0
61 61 61 68 65 65 65 71 68 68 61 55 48 52 48 39 10 0 0 13 23 23 23 13 0 0 3 0 3 10 13 6 3 3 0 0 0 0 0 0 3 3 0
61 61 61 65 58 61 61 68 58 58 55 48 42 39 35 35 6 0 0 16 16 16 16 10 10 0 0 0 0 6 10 3 3 3 3 3 0 0 3 0 3 3 0
58 58 58 61 55 61 61 55 58 52 48 45 35 35 32 26 19 0 0 0 6 19 16 10 6 0 0 0 0 0 0 0 3 10 10 3 0 0 0 0 0 3 3
55 55 52 52 48 52 52 42 42 45 42 35 32 32 29 26 16 0 0 0 0 6 13 3 0 0 0 0 0 0 0 0 6 6 6 6 3 3 0 0 0 3 3
52 52 48 39 35 29 39 42 35 39 35 32 29 29 29 26 23 13 3 0 0 0 3 0 0 0 0 0 0 0 0 3 3 3 3 6 3 0 3 3 0 0 0
45 42 32 32 26 29 23 29 39 29 26 29 32 26 29 23 16 10 10 10 3 3 3 6 3 3 3 3 3 3 0 0 0 0 0 0 0 0 0 0 0 0 0
39 29 32 32 32 23 16 13 6 13 6 3 10 13 16 13 3 0 0 0 0 0 0 6 3 3 3 3 3 0 0 0 0 3 0 0 0 0 0 0 0 0 0
35 32 32 32 32 26 16 10 10 6 0 0 0 0 3 0 0 0 0 0 0 0 3 6 3 3 3 3 3 0 0 0 3 0 0 0 0 0 0 0 0 0 0
29 26 29 32 26 23 16 16 19 19 10 13 0 0 0 0 0 0 0 0 0 0 3 6 3 3 3 3 3 3 3 3 0 0 0 0 0 0 0 0 0 0 0
23 23 16 19 16 19 13 13 16 10 13 16 16 0 0 0 0 0 0 0 0 0 3 3 6 3 3 3 0 0 0 0 0 0 0 0 0 0 0 0 0 0 0
19 13 13 19 16 16 16 16 19 16 10 10 13 13 0 0 0 0 0 3 3 3 3 3 3 3 3 0 0 0 0 0 0 0 0 0 0 0 0 0 0 0 0
19 19 10 16 16 16 19 19 13 10 10 6 10 13 6 3 3 3 0 3 3 3 3 3 3 0 0 0 0 0 0 0 0 0 0 0 0 0 0 0 0 0 0
23 19 19 16 10 13 13 13 13 13 10 10 10 13 0 3 6 6 6 6 3 6 6 6 0 0 0 0 0 3 0 0 0 0 0 0 0 0 0 0 0 0 0
19 13 13 13 13 10 3 10 6 10 10 10 10 10 3 3 6 3 3 3 3 3 3 3 3 0 0 0 0 0 0 0 0 3 3 0 0 0 0 0 0 0 0
16 13 10 10 10 10 6 6 6 10 10 10 6 10 6 6 0 0 0 0 0 0 0 0 0 0 0 0 0 0 0 0 0 0 0 0 0 0 0 0 0 0 0
13 13 10 6 10 10 10 3 3 6 10 6 10 6 3 0 3 3 3 0 0 0 0 0 0 0 0 0 0 0 0 0 0 0 0 0 0 0 0 0 0 0 0
10 13 6 10 6 6 6 3 3 6 10 6 3 3 0 0 0 0 0 0 0 0 0 0 0 0 0 0 0 0 0 0 0 0 0 0 0 0 0 0 0 0 0

GEFSGL_con_cape1000_192.txt.gz
Probability
94 94 94 97 94 90 94 90 90 87 87 87 87 87 84 87 84 81 77 68 65 71 74 68 65 65 58 52 52 48 52 39 29 39 32 35 32 29 16 16 19 13 13
94 97 100 94 94 94 94 87 90 90 87 84 84 84 87 84 81 77 77 71 71 71 74 58 58 45 45 48 52 45 42 42 29 32 32 26 35 26 23 19 16 10 13
87 87 94 90 87 87 90 90 87 87 84 84 87 84 84 81 81 74 77 71 68 65 55 55 48 48 52 48 45 42 35 26 32 35 29 29 32 19 16 19 13 13 10
84 84 90 87 87 87 90 90 90 90 90 84 84 81 81 77 77 68 68 68 58 61 58 52 48 45 35 39 35 39 35 32 29 35 32 26 19 19 23 16 16 16 13
81 84 84 87 87 90 90 90 90 90 90 90 81 77 74 68 61 61 61 61 58 61 55 48 39 29 26 19 16 19 26 26 26 26 23 19 16 16 16 13 3 3 3
81 81 81 84 87 87 90 87 87 87 90 90 81 71 68 58 39 39 48 58 52 55 48 42 29 26 16 10 6 6 10 16 19 23 19 16 16 13 13 13 6 3 3
81 81 81 84 84 84 81 81 87 84 77 74 74 71 65 39 26 26 32 48 52 55 42 42 29 13 10 13 6 0 0 0 0 10 13 16 19 19 16 13 13 10 10
74 77 77 77 77 81 81 81 77 77 77 77 74 71 55 32 16 13 10 42 45 42 35 32 26 19 16 16 13 10 10 10 10 0 3 6 10 6 6 10 10 10 10
65 65 71 71 74 77 77 77 77 71 71 71 68 68 48 32 13 6 3 32 35 29 26 26 26 16 10 3 10 13 13 10 0 0 0 0 0 0 0 0 0 3 0
55 61 71 71 74 65 74 71 68 65 68 65 61 55 48 39 16 10 0 23 35 29 23 19 16 10 10 0 3 13 16 16 6 3 0 0 0 0 0 0 0 0 0
58 58 65 65 68 65 68 68 61 65 68 58 55 52 48 39 16 6 0 13 19 29 19 19 13 3 0 0 0 6 6 6 6 6 3 3 3 0 0 0 0 0 3
55 58 58 61 58 55 61 61 68 58 48 45 48 45 42 39 23 13 0 0 3 23 23 13 6 3 0 0 0 0 0 0 3 6 3 3 3 3 3 0 0 0 3
61 58 55 55 61 61 61 55 48 45 42 42 39 39 35 29 26 10 0 0 0 6 13 13 0 0 0 0 0 0 0 0 3 3 3 6 6 6 0 0 0 0 0
61 58 55 52 55 55 52 45 42 35 39 42 39 32 35 23 19 19 10 0 0 0 3 0 0 0 0 0 0 0 0 3 3 3 6 6 6 6 0 0 0 0 0
55 52 48 45 45 45 42 35 35 32 39 42 35 32 29 23 16 16 13 6 3 0 0 3 3 3 0 3 6 0 0 0 0 3 6 6 6 3 3 0 0 0 0
48 52 39 39 42 39 32 23 16 23 13 6 13 13 23 19 3 3 0 3 3 0 0 0 3 3 3 3 6 6 6 6 6 6 6 6 6 3 3 3 0 0 0
45 39 42 26 32 29 29 32 23 10 0 0 0 3 3 0 0 0 0 0 0 0 0 3 6 3 3 3 3 6 6 6 6 6 6 6 3 0 0 0 0 0 0
39 29 26 26 32 32 29 26 23 16 13 16 0 0 0 0 0 0 0 0 0 0 0 3 6 6 3 3 3 0 6 6 6 3 6 0 0 0 0 0 0 0 0
32 29 32 26 23 26 23 23 19 16 16 23 16 3 0 0 0 0 0 0 0 0 0 3 6 13 6 3 6 3 3 3 3 3 0 0 0 0 0 0 0 0 0
29 26 19 19 10 19 19 19 19 19 16 13 13 10 6 3 3 0 0 0 0 0 3 6 6 6 3 0 0 6 6 3 3 0 0 0 0 0 0 0 0 0 0
16 13 10 10 6 13 19 23 23 23 16 13 13 10 3 3 6 6 3 3 0 0 0 3 3 3 3 3 3 3 3 3 3 0 0 0 0 0 0 0 0 0 0
13 10 10 13 19 29 23 26 23 19 16 10 10 10 3 0 3 6 10 6 3 3 3 6 3 3 0 3 3 3 3 3 0 0 0 0 0 0 0 0 0 0 0
6 10 10 10 13 13 16 23 23 16 13 6 6 6 3 3 3 3 6 6 6 3 3 3 6 6 3 6 6 6 3 0 0 0 0 0 0 0 0 0 0 0 0
6 6 10 10 10 10 10 13 13 6 6 6 6 6 6 3 3 3 3 6 6 6 3 3 3 6 6 3 3 3 3 0 0 0 0 0 0 0 0 0 0 0 0
6 10 10 13 16 19 16 13 10 6 6 6 6 6 6 6 3 3 6 6 6 3 6 3 3 3 3 3 3 3 0 0 0 0 0 0 0 0 0 0 0 0 0
6 10 13 16 13 16 13 6 10 10 6 6 6 6 6 6 6 6 3 3 3 3 3 3 3 0 3 3 0 0 0 0 0 0 0 0 0 0 0 0 0 0 0

GEFSGL_con_cape1000_198.txt.gz
Probability
61 58 58 65 58 58 55 48 45 45 52 61 58 58 52 48 48 42 42 39 35 29 23 19 13 10 6 6 10 6 3 3 3 3 0 0 0 0 0 0 3 3 0
61 58 55 58 58 52 55 52 52 52 58 65 65 58 55 48 48 48 45 42 32 26 16 10 10 6 6 6 6 3 3 0 3 3 3 0 0 0 0 3 3 6 0
65 58 55 61 58 58 55 55 55 65 58 58 58 58 58 52 48 42 45 39 35 23 13 6 6 6 10 10 3 3 3 3 0 0 0 0 0 0 3 0 0 0 0
65 61 61 58 55 61 61 58 61 61 58 58 52 52 55 48 48 45 45 35 32 26 13 6 6 6 16 10 10 10 10 6 3 0 0 0 0 0 0 0 0 0 0
58 61 58 65 65 61 68 71 65 61 61 45 52 45 45 42 42 39 35 35 29 26 23 13 10 10 10 10 10 10 10 6 6 3 3 0 0 0 0 0 0 0 0
61 58 58 65 68 74 74 68 58 55 52 48 45 45 48 48 42 32 29 29 29 23 23 19 16 10 10 10 10 10 10 6 6 6 3 3 0 0 0 0 0 0 0
45 55 61 65 58 65 65 58 58 52 45 45 45 42 39 39 29 16 19 26 19 19 19 16 13 16 10 6 6 3 0 0 6 3 3 3 0 0 0 0 3 0 0
39 39 39 48 52 48 52 58 55 52 45 45 42 35 35 35 19 10 6 10 13 13 16 16 16 13 10 6 6 6 6 3 0 0 0 0 0 0 0 0 0 0 0
32 35 35 32 42 48 48 52 52 48 42 42 35 32 32 32 16 10 3 6 13 13 10 13 13 13 6 3 6 6 3 0 0 0 0 0 0 0 0 0 0 0 0
26 29 29 32 39 39 42 42 45 39 35 39 35 29 29 26 10 6 3 10 13 10 6 6 6 6 0 0 0 3 3 0 0 0 0 0 0 0 0 0 0 0 0
23 26 29 29 35 35 35 35 39 42 32 32 32 32 26 29 13 0 0 10 13 10 10 6 6 0 0 0 0 0 0 0 0 0 0 0 0 0 0 0 0 0 0
23 19 23 26 29 29 26 26 29 39 35 32 29 32 29 19 16 0 0 0 3 3 3 3 3 0 0 0 0 0 0 0 0 0 0 0 0 0 0 0 0 0 0
19 19 19 19 26 23 23 23 26 23 26 26 26 26 26 26 16 3 0 0 0 0 3 0 0 0 0 0 0 0 0 0 0 0 0 0 0 0 0 0 0 0 0
16 16 16 16 23 23 26 26 29 26 26 19 19 19 19 16 16 13 3 0 0 0 0 0 0 0 0 0 0 0 0 0 0 0 0 0 0 0 0 0 0 0 0
16 16 13 13 16 19 19 19 19 16 16 16 13 16 16 23 19 13 13 6 3 0 0 0 0 0 0 0 0 0 0 0 0 0 0 0 0 0 0 0 0 0 0
10 10 13 10 10 10 13 13 13 10 6 6 10 10 13 10 3 0 0 0 3 0 0 0 0 0 0 0 0 0 0 0 0 0 0 0 0 0 0 0 0 0 0
13 10 10 6 10 13 13 13 10 0 0 0 0 0 3 0 0 0 0 0 0 0 0 0 0 0 0 0 0 0 0 0 0 0 0 0 0 0 0 0 0 0 0
10 10 6 6 6 10 10 10 10 6 3 3 3 0 0 0 0 0 0 0 0 0 0 0 0 0 0 0 0 0 0 0 0 0 0 0 0 0 0 0 0 0 0
10 6 6 6 6 3 6 10 6 6 3 3 3 3 3 0 0 0 0 0 0 0 0 0 0 0 0 0 0 0 0 0 0 0 0 0 0 0 0 0 0 0 0
10 6 6 6 3 3 3 10 6 3 3 3 3 3 3 0 0 0 0 0 0 0 0 0 0 0 0 0 0 0 0 0 0 0 0 0 0 0 0 0 0 0 0
6 3 3 3 0 0 0 0 3 3 3 3 3 3 3 3 3 0 0 0 0 0 0 0 0 0 0 0 0 0 0 0 0 0 0 0 0 0 0 0 0 0 0
3 3 3 3 3 0 0 0 0 3 3 3 3 3 3 3 3 3 3 3 0 0 0 0 0 0 0 0 0 0 0 0 0 0 0 0 0 0 0 0 0 0 0
3 3 3 3 0 0 0 0 0 0 3 3 3 3 3 3 3 3 3 3 3 3 0 0 0 0 0 0 0 0 0 0 3 0 0 0 0 0 0 0 0 0 0
3 3 3 3 0 0 0 3 3 0 0 3 3 3 3 3 3 3 3 3 3 3 3 3 0 0 0 0 0 0 0 0 0 0 0 0 0 0 0 0 0 0 0
3 3 3 3 3 0 0 3 3 3 0 0 3 3 3 3 3 3 3 3 3 3 3 3 0 0 0 0 0 0 0 0 0 0 0 0 0 0 0 0 0 0 0
0 0 3 3 3 0 0 3 3 0 0 0 0 3 3 3 3 3 3 3 3 3 0 0 0 0 0 0 0 0 0 0 0 0 0 0 0 0 0 0 0 0 0

GEFSGL_con_cape1000_204.txt.gz
Probability
32 32 39 32 23 26 26 23 26 26 32 35 35 39 39 35 35 35 39 42 35 35 32 23 16 10 10 6 6 6 6 6 6 3 0 0 0 3 3 6 3 3 3
35 35 35 32 29 26 32 29 29 32 29 35 32 42 42 42 39 35 45 39 45 39 35 19 13 10 10 10 6 6 10 10 6 6 3 0 3 3 0 6 0 0 0
42 39 39 39 29 29 32 35 32 35 32 29 39 42 45 45 35 35 42 39 39 35 32 23 13 6 6 6 6 6 10 3 3 6 3 0 0 0 0 0 0 0 0
39 42 42 42 32 26 26 32 42 45 42 32 29 29 35 32 29 35 32 35 32 26 23 23 16 10 6 6 6 6 10 6 3 3 3 3 3 0 0 0 3 0 0
42 35 35 32 35 35 32 32 35 42 35 29 35 35 35 32 26 29 29 26 19 19 19 19 16 10 10 6 6 10 10 6 10 6 10 6 3 0 0 0 3 0 0
32 32 32 35 35 39 39 42 39 32 35 39 32 35 39 35 23 13 13 19 16 19 16 13 16 13 10 6 6 3 3 10 10 10 10 6 6 3 0 0 0 0 0
26 26 26 23 26 32 39 39 42 42 39 39 35 39 39 32 19 6 3 13 13 16 16 16 13 13 10 16 3 3 0 0 0 10 10 10 6 6 3 3 3 0 0
23 23 23 23 26 26 29 29 29 35 29 32 35 35 39 39 13 3 0 6 13 13 13 13 16 16 13 13 10 6 10 3 0 0 6 10 6 6 3 3 3 0 0
23 23 23 26 19 23 29 26 26 26 26 23 26 26 29 32 6 3 0 6 13 13 10 16 13 13 10 0 3 3 10 6 0 0 0 0 0 0 0 0 0 0 0
16 19 19 23 19 23 29 29 26 23 19 16 13 16 26 26 13 0 0 13 16 16 10 10 6 3 3 0 0 3 3 10 0 0 0 0 0 0 0 0 0 0 0
16 16 16 13 16 19 29 19 19 19 16 13 10 13 16 16 16 0 0 16 19 19 16 10 6 0 0 0 0 3 3 0 3 0 0 0 0 0 0 0 0 0 0
13 16 16 13 10 10 16 16 19 19 19 19 13 10 3 13 16 6 0 0 13 19 16 16 10 0 0 0 0 0 0 0 0 0 0 0 0 0 0 0 0 0 0
6 3 6 10 10 10 10 13 16 16 23 19 16 13 10 10 10 6 0 0 0 10 16 13 0 0 0 0 0 0 0 0 0 0 0 0 0 0 3 3 0 0 0
6 3 3 6 10 10 10 13 13 16 19 23 23 13 13 10 10 16 6 0 0 0 3 0 0 0 0 0 0 0 0 0 0 0 0 0 0 0 0 0 0 0 0
6 3 3 3 3 6 6 10 13 13 16 16 19 16 13 6 6 10 13 13 3 0 0 0 0 0 0 0 0 0 0 0 0 0 0 0 0 0 0 0 0 0 0
6 3 3 3 3 6 3 3 3 6 6 10 10 10 13 3 6 3 0 0 0 0 0 0 0 0 3 0 0 0 0 0 0 0 0 0 0 0 0 0 0 0 0
6 6 3 3 3 3 3 3 3 3 3 3 0 0 0 0 0 0 0 0 0 0 0 0 0 0 3 3 3 0 0 0 0 0 0 0 0 0 0 0 0 0 0
6 6 6 3 3 3 3 3 3 3 6 3 0 0 0 0 0 0 0 0 0 0 0 0 0 3 3 3 6 3 0 0 0 0 0 0 0 0 0 0 0 0 0
3 6 6 3 0 0 0 3 6 6 6 6 3 0 0 0 0 0 0 0 0 0 0 0 0 0 3 3 6 10 3 0 0 3 3 0 0 0 0 0 0 0 0
0 3 6 0 0 3 3 3 3 6 6 3 0 0 0 0 0 0 3 3 3 3 3 3 3 3 0 0 0 6 6 6 6 0 0 3 0 0 0 0 0 0 0
3 3 3 3 3 3 3 3 3 3 3 0 0 0 0 0 0 0 0 3 3 3 3 3 3 3 0 0 0 3 3 3 6 6 6 3 0 0 0 0 0 0 0
3 3 3 3 3 3 3 3 0 0 0 0 0 0 0 0 0 0 0 0 3 3 3 0 3 3 3 3 3 3 3 3 3 3 3 3 3 3 3 0 0 0 0
0 0 0 0 0 0 0 0 3 0 0 0 0 0 0 0 0 0 0 0 0 3 3 3 0 3 3 3 3 0 0 0 3 0 3 3 3 3 3 3 3 3 0
0 0 0 0 0 0 0 0 3 0 0 0 0 0 0 0 0 0 0 0 0 0 3 3 3 3 3 0 0 0 0 0 0 0 0 0 3 3 0 0 0 0 0
0 0 0 0 0 0 0 0 0 0 0 0 0 0 0 0 0 0 0 0 0 0 0 3 3 3 3 3 0 0 0 0 0 0 0 0 0 0 0 0 0 0 0
0 0 0 0 0 0 0 0 0 0 0 0 0 0 0 0 0 0 0 0 0 0 0 3 3 3 3 3 0 0 0 0 0 0 0 0 0 0 0 0 0 0 0

GEFSGL_con_cape1000_210.txt.gz
Probability
77 77 77 81 81 77 77 74 74 74 74 81 81 77 74 74 71 74 71 71 68 68 65 61 61 58 61 61 58 55 52 52 42 32 23 32 39 32 26 26 26 23 19
77 77 81 81 81 81 77 74 74 74 71 74 74 71 74 77 77 74 71 68 65 65 65 68 61 58 61 58 65 48 52 61 45 39 39 35 48 42 39 35 16 16 19
68 71 68 71 71 74 71 71 74 74 74 74 74 71 71 71 71 77 77 74 71 68 71 65 58 61 61 58 58 48 45 35 45 42 35 35 35 32 35 26 19 23 13
68 65 68 71 71 71 68 68 71 71 74 74 71 71 68 71 71 71 68 68 71 71 65 65 61 61 58 52 55 58 52 45 42 39 39 39 35 35 32 23 23 19 16
55 58 58 68 71 68 68 68 68 68 68 71 68 68 68 65 61 61 61 61 61 65 65 65 61 48 45 45 42 52 48 35 32 39 42 42 35 32 26 23 13 23 23
52 48 48 58 61 65 65 61 65 65 68 65 58 55 55 52 42 39 52 65 71 61 65 61 52 48 32 19 13 10 23 35 35 39 39 39 35 32 26 19 19 16 16
45 45 45 52 48 48 58 58 61 65 68 65 55 52 52 48 23 19 19 48 55 65 58 58 55 45 35 42 16 10 6 3 3 39 29 29 32 26 29 23 32 23 19
39 39 39 42 39 45 52 52 55 58 61 65 55 52 52 48 26 10 3 32 52 61 55 58 55 52 35 39 39 29 32 29 16 16 29 32 29 29 29 29 29 26 23
39 39 39 39 35 39 35 42 48 52 55 48 45 42 48 45 16 0 0 48 52 55 52 45 48 42 32 10 39 42 35 32 6 0 3 13 6 10 10 16 19 16 16
32 35 35 42 42 39 35 32 39 39 45 39 39 39 42 45 16 0 0 39 55 48 52 48 29 32 23 3 35 39 32 29 16 10 3 0 6 6 0 10 13 16 13
35 35 39 39 39 39 39 32 32 32 35 32 32 35 35 29 23 3 0 39 42 45 42 45 39 13 0 0 6 35 26 23 23 16 16 16 19 19 13 10 19 13 13
35 39 39 35 35 32 39 35 35 29 32 35 35 32 35 32 26 3 0 3 10 35 39 39 42 0 0 0 0 6 3 3 13 16 16 19 16 19 16 13 19 16 16
35 39 39 39 39 35 35 29 39 39 29 29 29 26 26 19 23 10 0 0 0 10 32 19 13 0 0 0 0 0 0 6 10 10 10 16 13 16 16 19 10 13 13
32 35 35 32 32 32 32 26 23 23 26 26 26 26 19 19 19 19 23 6 0 0 6 6 0 0 0 3 0 0 0 6 6 10 13 16 16 19 13 13 6 3 3
32 32 32 26 23 26 23 19 16 23 6 10 10 16 16 16 16 16 16 16 6 6 10 10 13 6 3 10 13 16 3 6 6 6 16 16 13 13 16 10 13 6 0
29 29 26 19 23 13 16 16 3 3 3 3 3 3 13 6 3 3 3 10 3 0 0 13 13 19 19 16 6 10 16 6 6 6 6 13 16 13 10 10 10 6 0
23 16 16 13 13 13 10 10 10 0 0 0 0 0 0 0 0 0 0 0 0 0 3 13 13 13 13 13 10 10 10 13 13 10 10 13 13 10 16 13 13 10 6
13 13 16 16 13 16 10 10 6 6 6 6 0 0 0 0 0 0 0 0 0 0 6 13 10 10 13 13 13 10 6 6 13 13 10 6 6 13 16 13 13 13 10
13 6 6 13 13 13 13 6 6 6 6 6 3 0 0 0 0 0 0 0 6 3 6 10 10 10 10 10 10 6 3 3 3 13 13 10 10 10 6 6 13 6 3
10 6 6 6 10 10 6 6 6 6 6 3 6 6 0 0 0 0 0 3 10 10 6 6 6 10 6 3 3 6 6 3 3 3 13 16 13 10 10 10 10 13 10
6 3 3 3 3 6 6 3 3 6 3 3 3 3 3 3 3 6 6 3 6 6 6 6 6 6 3 6 3 6 6 3 6 3 6 13 16 13 13 10 6 6 10
10 10 6 3 3 6 3 3 6 6 3 3 3 3 0 3 3 6 6 6 6 6 3 3 3 3 0 0 0 6 6 3 3 3 3 6 10 10 10 6 6 3 3
10 10 10 6 6 0 0 0 3 3 3 3 3 6 3 6 3 6 3 3 3 3 3 3 3 0 0 0 0 0 0 3 3 3 3 3 6 6 10 6 10 3 3
10 6 6 6 6 6 10 6 6 3 3 3 3 3 0 3 3 0 3 3 3 3 3 3 0 0 0 0 0 0 0 0 3 3 3 3 3 6 6 6 6 6 6
6 6 6 6 6 6 6 6 6 0 0 0 0 0 0 0 0 6 6 6 3 3 0 0 0 0 0 0 0 0 0 0 0 3 3 3 3 3 6 6 6 6 6
3 3 3 0 0 0 0 0 0 3 3 0 0 0 0 3 3 6 3 3 3 3 3 0 0 0 0 0 0 0 0 0 0 0 0 3 3 3 3 3 6 6 6

GEFSGL_con_cape1000_216.txt.gz
Probability
90 90 87 84 77 77 77 81 81 81 74 74 77 74 74 74 71 71 74 74 71 68 68 65 68 65 68 68 65 65 68 61 42 45 48 42 39 29 26 26 16 13 6
87 84 81 77 77 77 74 77 74 74 71 71 74 74 77 71 71 71 71 71 71 71 71 71 65 58 65 61 61 58 65 58 45 35 39 39 42 35 32 32 23 16 16
71 74 77 74 77 74 71 74 71 71 71 71 74 74 74 71 65 74 71 68 71 65 65 68 65 58 65 61 61 58 58 42 45 39 29 32 32 32 29 29 26 26 13
71 68 65 68 68 71 68 71 68 71 71 71 74 74 74 74 71 71 71 71 68 61 58 68 68 65 65 58 55 55 52 48 55 39 29 29 35 32 29 26 23 26 13
61 61 61 68 71 71 68 68 71 74 74 77 77 74 77 74 68 65 61 61 61 61 61 65 65 58 58 52 45 52 48 45 52 39 32 29 29 32 26 26 16 23 19
55 52 58 58 65 65 61 61 71 71 77 77 77 77 77 61 45 35 42 55 58 61 65 65 55 52 48 35 29 26 32 42 39 42 39 23 23 32 29 19 19 16 16
55 52 55 55 55 58 55 61 65 68 71 74 74 71 71 65 42 23 23 42 55 61 58 52 48 39 35 42 26 13 10 13 16 42 35 32 29 29 29 26 19 19 16
55 52 55 58 52 61 55 55 58 61 65 68 68 68 68 61 35 10 13 32 55 55 58 58 52 48 39 42 35 29 29 26 13 10 26 35 29 29 23 16 16 16 23
45 48 45 48 48 55 52 55 58 65 65 65 61 61 61 58 32 6 3 35 45 55 65 61 58 48 39 23 26 29 35 26 10 3 3 10 3 10 13 16 10 10 10
45 48 45 45 45 48 42 42 45 55 52 55 55 52 52 58 29 13 0 32 45 48 58 55 32 32 26 13 29 32 32 39 32 19 3 0 3 3 3 6 13 13 10
39 42 35 39 45 45 42 42 42 42 42 39 39 32 39 39 26 0 0 26 42 42 45 39 35 13 10 0 6 32 32 26 26 23 19 10 10 10 10 6 10 10 10
29 29 29 39 35 32 39 42 48 42 42 39 39 32 32 35 26 10 0 3 13 32 35 32 26 13 0 0 0 10 10 6 23 26 19 13 10 13 10 10 10 10 10
39 42 42 39 42 39 32 35 39 42 29 35 35 32 35 26 26 16 0 0 3 13 19 16 13 3 0 0 0 0 3 3 10 16 16 19 16 16 16 16 10 13 10
35 48 45 45 39 39 32 19 19 32 35 35 26 29 29 26 23 26 13 0 0 3 6 6 3 0 0 0 0 0 3 3 10 10 13 19 16 13 13 16 13 13 13
39 39 39 29 26 35 32 23 23 29 29 23 26 26 26 23 10 13 13 16 13 10 6 13 10 13 0 3 6 13 6 3 3 6 10 19 19 13 10 13 10 10 6
48 42 29 29 19 23 19 16 3 6 6 3 10 10 10 10 6 6 3 10 10 6 3 6 10 6 10 10 10 13 10 10 10 10 16 19 19 13 10 19 13 13 6
48 42 32 29 26 19 23 19 16 3 0 0 3 3 6 0 0 0 0 0 0 0 6 10 10 13 10 10 10 10 13 13 10 13 13 13 19 10 13 13 13 3 3
39 23 19 29 26 23 19 23 19 16 16 3 0 0 0 0 0 0 0 0 0 0 6 10 13 13 13 13 13 10 10 13 13 13 16 13 13 10 13 10 6 6 6
19 19 23 23 6 16 16 13 16 19 13 10 6 0 0 0 0 0 0 0 0 0 3 6 10 10 10 13 13 10 10 13 13 13 13 10 10 10 6 3 6 6 0
29 16 13 10 6 10 10 10 10 13 6 13 6 3 0 0 0 0 0 0 0 3 3 10 10 10 10 6 6 6 6 10 13 10 10 10 6 6 6 6 3 3 3
10 6 3 6 3 6 6 6 13 6 3 3 3 3 3 0 0 3 0 0 0 6 13 10 6 10 6 6 6 6 6 6 3 6 10 10 6 6 6 3 3 3 3
10 6 6 6 10 6 3 6 10 3 3 3 3 3 0 0 0 0 3 6 3 6 13 10 6 6 6 6 6 6 6 6 3 6 6 6 3 3 3 3 3 3 3
13 6 13 10 13 3 3 6 3 3 3 3 3 3 3 0 3 3 3 0 0 10 6 6 6 6 6 6 10 10 6 3 3 6 3 3 3 0 0 0 0 3 3
13 6 3 3 10 6 3 3 3 3 3 3 3 3 3 3 6 3 3 6 6 6 6 6 6 6 3 3 3 6 6 6 3 0 3 3 3 0 0 0 0 0 0
6 3 3 3 3 3 3 3 3 3 3 3 3 3 3 3 3 3 6 6 6 6 3 3 3 3 3 3 3 6 3 3 0 3 6 3 3 0 0 0 0 0 0
6 6 3 3 3 3 3 3 3 3 3 3 3 3 6 3 3 3 0 0 3 0 3 3 3 3 3 3 3 3 0 0 0 0 0 3 3 3 0 0 0 0 0

GEFSGL_con_cape1000_222.txt.gz
Probability
65 61 65 61 58 58 55 55 52 55 55 45 45 48 48 42 45 42 42 39 42 39 32 32 26 29 26 26 23 16 13 10 13 6 3 6 6 6 3 0 0 0 0
65 68 61 55 52 58 58 55 52 48 52 55 48 48 45 42 39 35 39 39 39 32 29 32 32 32 29 26 19 19 13 10 13 13 6 3 6 6 6 3 3 3 3
61 65 58 58 55 55 58 52 48 52 48 58 52 48 45 39 42 35 35 35 35 32 29 35 32 32 29 19 19 16 16 16 13 13 10 3 6 6 3 3 3 3 3
55 58 55 55 55 52 52 52 52 48 48 48 52 52 45 42 39 35 35 32 32 29 29 29 23 23 26 29 19 19 19 13 13 10 10 3 3 3 3 0 0 0 0
52 58 48 42 48 48 48 48 45 48 45 45 48 48 52 42 45 39 35 32 29 26 23 23 26 19 23 19 29 16 13 16 13 10 6 3 3 3 3 3 3 0 0
35 35 39 39 39 42 45 45 48 48 45 45 45 45 42 45 45 32 42 45 39 29 29 26 29 29 29 19 13 13 13 10 6 3 3 3 3 3 3 3 3 0 0
32 32 32 32 32 35 42 42 42 42 42 48 42 42 35 35 26 26 23 39 35 32 32 23 26 32 23 19 10 10 6 6 3 6 0 0 0 3 3 3 3 3 0
29 29 32 29 32 26 29 32 32 29 29 26 29 35 35 26 16 10 6 16 19 19 19 19 23 23 19 13 10 6 6 6 3 0 3 0 0 0 3 3 3 3 0
26 26 26 26 26 23 26 26 23 23 19 23 19 19 16 16 10 6 3 13 19 19 19 23 23 13 13 3 6 10 10 6 3 0 3 0 0 0 0 0 0 3 0
23 23 29 29 26 23 16 19 19 19 19 19 23 16 13 10 6 0 3 13 16 10 13 13 16 13 6 0 6 6 10 6 3 6 0 0 0 0 0 0 0 0 0
29 26 26 29 19 13 13 16 23 23 23 19 16 10 10 10 6 0 0 16 13 13 16 13 13 6 0 0 0 6 6 6 3 3 3 0 0 0 0 0 0 0 0
26 23 19 23 19 19 16 16 16 16 16 16 16 10 10 10 10 0 0 0 6 10 10 10 13 6 0 0 0 3 3 0 0 3 3 3 3 3 0 0 0 0 0
16 16 16 13 13 10 10 13 13 13 13 13 10 10 10 10 10 6 0 0 0 10 10 10 10 3 0 0 0 0 0 0 0 3 6 6 3 3 3 0 0 0 0
10 13 13 13 13 10 10 10 13 10 10 16 10 10 13 10 6 6 0 0 0 3 3 6 3 0 0 0 0 0 0 0 3 3 3 3 6 6 6 3 0 0 0
10 13 13 6 6 3 3 3 6 6 6 6 10 10 10 6 3 3 3 0 3 3 3 3 3 0 0 0 0 0 0 0 0 3 3 3 3 3 3 3 3 3 3
6 3 6 10 6 6 3 3 0 6 3 3 0 3 6 3 3 3 0 3 3 3 3 6 6 6 6 3 0 0 0 0 0 0 0 3 3 3 3 3 3 3 3
3 3 3 6 6 6 6 3 3 0 0 0 0 0 3 0 3 0 0 0 0 0 3 6 6 6 6 3 3 3 3 3 0 0 0 0 3 3 3 3 3 3 3
0 0 3 6 6 6 10 6 6 6 0 0 0 0 0 0 0 0 0 0 0 0 3 6 6 6 6 3 3 3 3 3 0 3 3 3 3 3 3 3 3 0 0
0 0 0 3 3 3 3 3 0 0 0 0 0 0 0 0 0 0 0 0 0 3 3 6 6 6 3 3 3 3 0 0 0 0 0 3 3 3 3 3 3 0 0
0 0 0 0 3 3 3 3 3 0 0 0 0 0 0 0 0 0 0 0 0 3 3 3 3 0 0 0 0 0 0 0 0 0 0 0 3 3 3 3 0 0 0
0 0 0 0 0 3 3 3 3 0 0 0 0 0 0 0 0 0 0 3 3 3 3 3 3 0 0 0 0 0 0 0 0 0 0 0 0 3 3 3 0 0 0
0 0 0 0 0 0 3 3 3 0 0 0 0 0 0 0 0 0 0 3 3 0 3 3 0 0 0 0 0 0 0 0 0 0 0 0 0 0 3 0 0 0 0
0 0 0 0 0 0 3 0 0 0 0 0 0 0 0 0 0 0 0 0 0 0 0 0 0 0 0 0 0 0 0 0 0 0 0 0 0 0 0 0 0 0 0
0 0 0 0 0 0 3 3 0 0 0 0 0 0 0 0 0 0 0 0 0 0 0 0 0 0 0 0 0 0 0 0 0 0 0 0 0 0 0 0 0 0 0
0 0 0 0 0 0 3 3 3 0 0 0 0 0 0 0 0 0 0 0 0 0 0 0 0 0 0 0 0 0 0 0 0 0 0 0 0 0 0 0 0 0 0
0 0 0 0 0 0 3 3 3 3 3 0 0 0 0 0 0 0 0 0 0 0 0 0 0 0 0 0 0 0 0 0 0 0 0 0 0 0 0 0 0 0 0

GEFSGL_con_cape1000_228.txt.gz
Probability
42 42 32 32 26 29 29 29 29 29 29 32 29 19 19 19 26 29 32 29 26 32 23 29 32 29 26 26 23 16 13 10 16 16 10 10 10 10 6 6 3 3 6
35 39 35 32 32 29 29 26 23 26 26 29 26 26 26 26 23 26 29 32 32 32 32 26 26 19 26 23 23 19 16 16 16 16 13 10 13 6 6 10 3 3 13
35 35 29 26 29 26 26 23 29 32 29 26 26 29 29 32 32 26 23 32 32 26 29 29 26 19 19 19 16 16 19 16 16 16 16 13 10 6 6 6 6 13 6
29 29 29 26 26 23 23 23 23 29 32 29 29 32 32 32 29 35 29 26 32 32 32 29 26 23 23 23 16 16 13 13 13 13 13 6 10 10 3 10 13 6 6
23 26 26 23 23 19 19 19 23 26 26 29 26 26 29 29 29 32 32 29 26 26 26 26 23 19 16 16 16 16 10 10 6 6 10 6 6 0 3 6 6 3 3
26 26 19 16 16 23 23 29 32 29 29 26 26 29 26 29 19 13 16 19 19 19 23 26 19 16 16 6 3 0 0 3 3 6 6 10 6 3 3 0 3 3 3
19 19 19 19 19 26 26 26 26 29 26 32 29 29 16 16 10 6 6 13 16 16 13 19 16 16 10 16 3 0 0 0 0 3 3 3 3 6 3 0 0 3 3
16 19 19 19 19 23 23 23 23 26 23 23 32 29 29 16 10 0 0 3 6 10 3 3 13 10 6 10 13 6 3 0 0 0 3 3 0 0 3 0 0 0 3
23 23 19 19 23 23 23 23 26 23 26 19 26 23 23 16 6 0 0 6 10 6 3 6 6 6 3 3 6 10 6 10 0 0 0 0 0 0 0 0 0 0 0
19 26 26 26 23 23 23 23 23 23 19 19 19 23 23 19 3 0 0 6 10 10 6 0 0 0 3 3 3 13 13 13 6 0 0 0 0 0 0 0 0 0 0
13 16 32 23 26 23 16 16 16 16 16 10 13 16 16 19 6 0 0 3 13 10 3 6 6 0 0 0 3 10 13 13 10 3 0 0 0 0 0 0 0 0 0
16 26 26 23 19 19 19 13 10 13 13 10 13 10 13 10 6 0 0 0 3 10 10 10 6 0 0 0 0 3 3 0 6 3 3 0 0 0 0 0 0 0 0
16 23 23 19 10 10 16 10 10 10 6 6 6 10 10 10 6 3 0 0 0 0 10 6 3 0 0 0 0 3 0 3 6 3 6 3 3 0 0 3 3 0 0
16 13 10 10 10 3 3 3 3 3 3 6 6 6 6 10 10 3 3 0 0 0 0 0 0 0 0 0 0 0 3 3 6 10 10 6 6 3 0 0 0 0 0
13 10 6 6 6 6 3 3 3 3 3 6 6 6 6 10 6 3 3 3 0 0 0 0 0 0 0 0 0 3 3 3 3 6 6 6 3 3 0 0 0 0 0
3 3 6 6 6 6 3 3 0 0 3 0 0 3 3 3 3 0 0 0 0 0 0 0 0 3 3 3 3 3 3 3 3 3 3 0 3 3 3 3 3 0 0
3 3 3 6 6 6 3 3 3 0 0 0 0 0 0 0 0 0 0 0 0 0 0 0 0 3 3 3 3 6 6 3 0 0 0 0 0 0 3 3 3 3 3
0 0 0 0 3 3 3 0 0 0 0 0 0 0 0 0 0 0 0 0 0 0 0 0 0 3 3 3 3 6 6 6 3 0 0 0 0 0 0 0 0 0 0
0 0 0 0 0 3 3 3 0 0 0 0 0 0 0 0 0 0 0 0 0 0 0 0 0 3 3 3 3 6 6 6 6 3 3 0 0 0 0 0 0 0 0
0 0 0 0 0 0 0 3 3 3 0 0 0 0 0 0 0 0 0 0 0 0 0 0 0 0 0 3 6 6 6 6 6 3 3 0 0 0 0 3 3 0 0
0 0 0 0 0 0 0 0 3 3 3 0 0 0 0 0 0 0 0 0 0 0 0 0 0 0 0 0 3 3 6 6 6 0 0 0 0 0 0 3 3 3 0
0 0 0 0 0 0 0 0 0 0 3 3 0 0 0 0 0 0 0 0 0 0 0 0 0 0 0 0 3 3 3 3 3 0 0 0 0 0 0 0 0 0 0
0 0 0 0 0 0 0 0 0 0 0 3 0 0 0 0 0 0 0 0 0 0 0 0 0 0 0 0 3 3 3 3 0 0 0 0 0 0 0 0 0 0 0
0 0 0 0 0 0 0 0 0 0 0 0 3 0 0 0 0 0 0 0 0 0 0 0 0 0 3 3 3 3 3 0 0 0 0 0 0 0 0 0 0 0 3
0 0 0 0 0 0 0 0 0 0 0 0 0 0 0 0 0 0 0 0 0 0 0 0 0 0 3 3 3 3 0 0 0 0 0 0 0 0 0 0 0 0 3
0 0 0 0 0 0 0 0 0 0 0 0 0 0 0 0 0 0 0 0 0 0 0 0 0 3 3 3 0 0 0 0 0 0 0 0 0 0 0 0 0 0 0